Terminal Aerodrome Forecast
Issued by NWS

Current Version | Previous Version | Graphics & Text | Print | Product List | Glossary On
Versions: 1 2 3 4 5 6 7 8 9 10 11 12 13 14 15 16 17 18 19 20 21 22 23 24 25 26 27 28 29 30 31 32 33 34 35 36
000
FTUS41 KRNK 240531
TAFLWB
TAF
KLWB 240531Z 2406/2506 02004KT P6SM -RA BKN015 OVC035 WS020/20040KT
      TEMPO 2407/2409 3SM RA BR BKN006 OVC012
     FM241300 08005KT 3SM -RA BR OVC004 WS019/20055KT
     FM242000 16005KT 5SM -RA BKN007 OVC015
     FM250200 26005KT 6SM -RA OVC020=

USA.gov is the U.S. government's official web portal to all federal, state and local government web resources and services.